K9JM Weather Reports


Display with metric or nautical units.
time (UTC)temp
F
wind
direction
speed
MPH
gust
MPH
rain 1hr
in
rain 24hr
in
rain mn
in
humidity
%
barometer
mb
20260503220018 55 0.0 0.0 0.00 0.00 0.00 83 1011.5
20260503214517 55 0.0 0.0 0.00 0.00 0.00 84 1011.6
20260503213017 55 0.0 0.0 0.00 0.00 0.00 84 1011.6
20260503211517 54 0.0 0.0 0.00 0.00 0.00 83 1011.2
20260503210017 54 0.0 0.0 0.00 0.00 0.00 83 1011.3
20260503204537 54 0.0 0.0 0.00 0.00 0.00 82 1011.2
20260503203017 55 0.0 0.0 0.00 0.00 0.00 81 1011.4
20260503201517 56 0.0 0.0 0.00 0.00 0.00 79 1011.2
20260503200017 58 0.0 0.0 0.00 0.00 0.00 75 1011.3
20260503194517 60 0.0 0.0 0.00 0.00 0.00 74 1011.4
20260503193017 60 0.0 0.0 0.00 0.00 0.00 73 1011.4
20260503191517 61 0.0 0.0 0.00 0.00 0.00 72 1011.6
20260503190017 61 0.0 0.0 0.00 0.00 0.00 75 1011.7
20260503184517 60 0.0 0.0 0.00 0.00 0.00 74 1011.6
20260503183017 60 0.0 0.0 0.00 0.00 0.00 72 1011.5
20260503181517 60 0.0 0.0 0.00 0.00 0.00 75 1011.4
20260503180017 60 0.0 0.0 0.00 0.00 0.00 71 1011.3
20260503174517 58 0.0 0.0 0.00 0.00 0.00 79 1010.7
20260503173117 58 0.0 0.0 0.00 0.00 0.00 75 1011.2
20260503171517 58 0.0 0.0 0.00 0.00 0.00 79 1011.2
20260503081516 61 0.0 0.0 0.00 0.00 0.00 68 1010.3
20260503071516 61 0.0 0.0 0.00 0.00 0.00 76 1010.8
20260503054515 61 0.0 0.0 0.00 0.00 0.00 77 1011.5
20260503053016 61 0.0 0.0 0.00 0.00 0.00 77 1011.5
20260503051515 61 0.0 0.0 0.00 0.00 0.00 77 1011.8
20260503050035 61 0.0 0.0 0.00 0.00 0.00 77 1011.6
20260503044515 62 0.0 0.0 0.00 0.00 0.00 75 1011.4
20260503043015 62 0.0 0.0 0.00 0.00 0.00 76 1011.2
20260503041515 62 0.0 0.0 0.00 0.00 0.00 74 1011.1
20260503040015 62 0.0 0.0 0.00 0.00 0.00 74 1011.1
20260503034515 62 0.0 0.0 0.00 0.00 0.00 73 1011.0
20260503033015 63 0.0 0.0 0.00 0.00 0.00 72 1011.0
20260503031515 63 0.0 0.0 0.00 0.00 0.00 72 1010.7
20260503030037 64 0.0 0.0 0.00 0.00 0.00 71 1010.5
20260503024517 64 0.0 0.0 0.00 0.00 0.00 70 1010.4
20260503023017 65 0.0 0.0 0.00 0.00 0.00 69 1010.4
20260503021517 66 0.0 0.0 0.00 0.00 0.00 68 1010.3
20260503020017 66 0.0 0.0 0.00 0.00 0.00 67 1010.3
20260503014537 67 0.0 0.0 0.00 0.00 0.00 64 1010.5
20260503013017 68 0.0 0.0 0.00 0.00 0.00 64 1010.6
20260503011517 68 0.0 0.0 0.00 0.00 0.00 61 1010.6
20260503010017 69 0.0 0.0 0.00 0.00 0.00 61 1010.7
20260503004517 69 0.0 0.0 0.00 0.00 0.00 58 1010.6
20260503003017 69 0.0 0.0 0.00 0.00 0.00 55 1010.6
20260503001517 70 0.0 0.0 0.00 0.00 0.00 52 1010.7
20260503000017 70 0.0 0.0 0.00 0.00 0.00 51 1010.7
20260502234557 70 0.0 0.0 0.00 0.00 0.00 53 1010.7
20260502233037 71 0.0 0.0 0.00 0.00 0.00 54 1010.8
20260502231517 71 0.0 0.0 0.00 0.00 0.00 52 1010.9
20260502230017 71 0.0 0.0 0.00 0.00 0.00 52 1011.2
20260502224517 70 0.0 0.0 0.00 0.00 0.00 53 1011.4
20260502223017 69 0.0 0.0 0.00 0.00 0.00 54 1011.5
20260502221517 69 0.0 0.0 0.00 0.00 0.00 55 1011.8